FW0683 Weather Reports


time (UTC)temp
F
wind
direction
speed
knots
gust
knots
rain 1hr
in
rain 24hr
in
rain mn
in
humidity
%
barometer
mb
20260903113026 62 85 0.0 0.0 0.02 0.16 0.16 94 1019.8
20260903111523 62 85 0.0 0.0 0.02 0.16 0.16 94 1019.9
20260903110022 62 85 0.0 0.0 0.03 0.16 0.16 94 1019.7
20260903104522 62 86 0.0 0.0 0.03 0.15 0.15 93 1019.7
20260903103022 62 352 0.0 0.0 0.03 0.14 0.14 93 1019.7
20260903101521 62 352 0.0 0.0 0.05 0.14 0.14 93 1019.8
20260903100027 62 352 0.0 0.0 0.07 0.13 0.13 93 1019.7
20260903094520 62 352 0.0 0.0 0.12 0.12 0.12 93 1020.0
20260903093020 62 352 0.0 0.0 0.11 0.11 0.11 92 1020.0
20260903091520 62 352 0.0 0.0 0.09 0.09 0.09 92 1020.3
20260903090019 63 352 0.0 0.0 0.06 0.06 0.06 91 1020.5
20260903084537 63 352 0.0 0.0 0.00 0.00 0.00 90 1020.3
20260903083017 63 95 0.0 0.0 0.00 0.00 0.00 90 1019.6
20260903081515 63 91 0.0 0.0 0.00 0.00 0.00 91 1019.8
20260903080013 63 101 0.0 0.0 0.00 0.00 0.00 92 1019.9
20260903074511 62 101 0.0 0.0 0.00 0.00 0.00 93 1020.3
20260903073009 62 101 0.0 0.0 0.00 0.00 0.00 93 1020.2
20260903071509 62 101 0.0 0.0 0.00 0.00 0.00 93 1020.5
20260903070007 62 101 0.0 0.0 0.00 0.00 0.00 93 1020.6
20260903064504 62 70 0.0 0.0 0.00 0.00 0.00 93 1021.1
20260903063001 62 70 0.0 0.0 0.00 0.00 0.00 93 1021.7
20260903061600 62 70 0.0 0.0 0.00 0.00 0.00 93 1022.3
20260903060058 62 70 0.0 0.0 0.00 0.00 0.00 93 1022.5
20260903054556 62 70 0.0 0.0 0.00 0.00 0.00 93 1022.4
20260903053113 62 70 0.0 0.0 0.00 0.00 0.00 93 1022.6
20260903051554 62 70 0.0 0.0 0.00 0.00 0.00 93 1022.6
20260903044559 62 70 0.0 0.0 0.00 0.00 0.00 93 1022.7
20260903043106 62 70 0.0 0.0 0.00 0.00 0.00 93 1022.7
20260903041554 62 70 0.0 0.0 0.00 0.00 0.00 93 1022.9
20260903040049 62 70 0.0 0.0 0.00 0.00 0.00 93 1023.0
20260903034544 62 70 0.0 0.0 0.00 0.00 0.00 93 1023.2
20260903033043 62 70 0.0 0.0 0.00 0.00 0.00 93 1023.9
20260903031543 62 70 0.0 0.0 0.00 0.00 0.00 93 1023.7
20260903030043 62 70 0.0 0.0 0.00 0.00 0.00 93 1023.7
20260903024541 62 70 0.0 0.0 0.00 0.00 0.00 93 1023.6
20260903023040 62 70 0.0 0.0 0.00 0.00 0.00 93 1023.6
20260903021548 62 70 0.0 0.0 0.00 0.00 0.00 92 1023.7
20260903020039 62 70 0.0 0.0 0.00 0.00 0.00 92 1024.0
20260903014538 62 70 0.0 0.0 0.00 0.00 0.00 92 1024.3
20260903013037 62 70 0.0 0.0 0.00 0.00 0.00 92 1023.8
20260903011538 62 70 0.0 0.0 0.00 0.00 0.00 92 1023.9
20260903010037 62 99 0.0 0.0 0.00 0.00 0.00 91 1023.8
20260903004537 63 100 0.0 0.0 0.00 0.00 0.00 91 1024.0
20260903003036 63 100 0.0 0.0 0.00 0.00 0.00 91 1024.2
20260903001535 63 103 0.0 0.0 0.00 0.00 0.00 91 1024.2
20260903000036 63 104 0.0 0.0 0.00 0.00 0.00 91 1024.3
20260902234534 63 51 0.0 0.0 0.00 0.00 0.00 90 1024.6
20260902233035 63 51 0.0 0.0 0.00 0.00 0.00 90 1024.9
20260902231535 63 51 0.0 0.0 0.00 0.00 0.00 88 1024.8
20260902230034 64 98 0.0 0.0 0.00 0.00 0.00 88 1024.9
20260902224539 64 95 0.0 0.0 0.00 0.00 0.00 87 1025.0
20260902223033 65 91 0.0 0.0 0.00 0.00 0.00 85 1025.3
20260902221539 65 73 0.0 0.0 0.00 0.00 0.00 84 1025.4
20260902220042 66 89 0.0 0.0 0.00 0.00 0.00 81 1025.6
20260902214532 67 102 0.0 0.0 0.00 0.00 0.00 79 1025.5
20260902213030 67 115 0.0 0.0 0.00 0.00 0.00 77 1025.5
20260902211529 68 96 0.0 0.0 0.00 0.00 0.00 76 1025.2
20260902210049 68 104 0.0 0.0 0.00 0.00 0.00 78 1025.2
20260902204533 68 92 0.0 0.0 0.00 0.00 0.00 79 1025.2
20260902203027 68 101 0.0 0.0 0.00 0.00 0.00 77 1025.3
20260902201532 68 86 0.0 0.0 0.00 0.00 0.00 78 1025.6
20260902200026 69 105 0.0 0.0 0.00 0.00 0.00 76 1025.7
20260902194532 69 65 0.0 0.0 0.00 0.00 0.00 75 1026.0
20260902193024 69 58 0.0 0.0 0.00 0.00 0.00 75 1026.2
20260902191522 70 338 0.0 0.0 0.00 0.00 0.00 73 1026.2
20260902190030 70 109 0.0 0.0 0.00 0.00 0.00 76 1025.9
20260902184530 69 120 0.0 0.0 0.00 0.00 0.00 74 1025.7
20260902183021 69 101 0.0 0.0 0.00 0.00 0.00 72 1025.7
20260902181521 69 94 0.0 0.0 0.00 0.00 0.00 76 1026.0
20260902180020 69 94 0.0 0.0 0.00 0.01 0.00 77 1026.3
20260902174519 69 96 0.0 0.0 0.00 0.01 0.00 74 1026.4
20260902173019 69 223 0.0 0.0 0.00 0.01 0.00 74 1026.2
20260902171519 69 230 0.0 0.0 0.00 0.01 0.00 72 1026.4
20260902170018 70 262 0.0 0.0 0.00 0.01 0.00 74 1026.4
20260902164517 70 102 0.0 0.0 0.00 0.01 0.00 75 1026.4
20260902163024 70 189 0.0 0.0 0.00 0.01 0.00 74 1026.3
20260902161516 70 335 0.0 0.0 0.00 0.01 0.00 75 1026.7
20260902160014 70 77 0.0 0.0 0.00 0.01 0.00 77 1026.9
20260902154511 69 108 0.0 0.0 0.00 0.01 0.00 79 1026.9
20260902153009 69 119 0.0 0.0 0.00 0.01 0.00 78 1027.0
20260902151516 68 18 0.0 0.0 0.00 0.01 0.00 81 1027.0
20260902150009 68 38 0.0 0.0 0.00 0.01 0.00 81 1026.9
20260902144508 68 233 0.0 0.0 0.00 0.01 0.00 84 1026.7
20260902143100 67 212 0.0 0.0 0.00 0.01 0.00 85 1026.5
20260902141557 66 212 0.0 0.0 0.00 0.01 0.00 87 1026.3
20260902140056 65 326 0.0 0.0 0.00 0.01 0.00 91 1026.3
20260902134552 64 234 0.0 0.0 0.00 0.06 0.00 93 1026.3
20260902133049 63 234 0.0 0.0 0.00 0.06 0.00 93 1026.3
20260902131548 63 19 0.0 0.0 0.00 0.06 0.00 94 1026.3
20260902130049 63 103 0.0 0.0 0.00 0.06 0.00 94 1026.4
20260902124545 63 77 0.0 0.0 0.00 0.18 0.00 94 1026.2
20260902123050 63 86 0.0 0.0 0.00 0.18 0.00 95 1026.4
20260902121543 62 86 0.0 0.0 0.00 0.18 0.00 95 1026.4
20260902120046 62 86 0.0 0.0 0.00 0.22 0.00 95 1026.4
20260902114540 62 86 0.0 0.0 0.00 0.22 0.00 95 1026.3